Find Starlink 1704

NORAD ID: 47625 Int'l Des: 2021-012 Owner: SPXS Country: US Constellation: starlink operational
LEOCIRCULAR

Live Position

Loading 3D Globe...

About Starlink 1704

Description loading...

Upcoming Passes

Passes for default location (London). Set your location on the main map for personalized predictions.

Altitude History

Loading altitude history...

Two-Line Element Set

1 47625U 21012F 26124.27397748 .00073063 00000-0 11794-2 0 9995
2 47625 53.0481 156.9067 0008629 20.0656 340.0690 15.52216696288716
Epoch: May 4, 2026 • Age: 13 hours

Current Status

Altitude 431.0 km
Velocity 7.65 km/s
Sub-Earth Point -52.89°S, 108.26°W
Launch Date Feb 16, 2021
Age 5.2 years
Type internet

Technical Details

Classification Payload
Mass 260.00 kg
Dry Mass 248.00 kg
Total Mass 260.00 kg
Length 0.20 m
Diameter 2.80 m
Span 9.00 m
Shape Box + pan
Manufacturer SPXS
Bus Type Starlink
Phase Status In Orbit
Owner/State SPXS/US

Most Searched